This is the latest recevied weather packets stored in our database for station/object KD4MBW. If no packets are shown the sender has not sent any weather packets the latest 10 day(s).
| Time | Temp. | Humidity | Pressure | Rain* | Wind** | Luminosity | Snow |
|---|---|---|---|---|---|---|---|
| 1778198895 | 24.44° C | 99% | 1013 hPa | 0 mm | - | 9 W/m² | - |
| 1778198592 | 24.44° C | 99% | 1013.2 hPa | 0 mm | - | 13 W/m² | - |
| 1778198289 | 24.44° C | 99% | 1013.2 hPa | 0 mm | - | 19 W/m² | - |
| 1778197986 | 25° C | 99% | 1013.2 hPa | 0 mm | - | 23 W/m² | - |
| 1778197683 | 25° C | 99% | 1013 hPa | 0 mm | - | 22 W/m² | - |
| 1778197380 | 25° C | 99% | 1013.2 hPa | 0 mm | - | 27 W/m² | - |
| 1778197076 | 25° C | 99% | 1013.1 hPa | 0 mm | - | 24 W/m² | - |
| 1778196774 | 25° C | 99% | 1013.2 hPa | 0 mm | - | 30 W/m² | - |
| 1778196472 | 25° C | 99% | 1013.1 hPa | 0 mm | - | 34 W/m² | - |
| 1778196168 | 25° C | 99% | 1013.1 hPa | 0 mm | - | 32 W/m² | - |
| 1778195864 | 25° C | 99% | 1013.2 hPa | 0 mm | - | 54 W/m² | - |
| 1778195562 | 25° C | 99% | 1013 hPa | 0 mm | - | 55 W/m² | - |
| 1778195258 | 25° C | 99% | 1013.1 hPa | 0 mm | - | 43 W/m² | - |
| 1778194956 | 25° C | 99% | 1013.2 hPa | 0 mm | - | 36 W/m² | - |
| 1778194655 | 25° C | 99% | 1013.1 hPa | 0 mm | - | 71 W/m² | - |
| 1778194352 | 25° C | 99% | 1013.2 hPa | 0 mm | - | 72 W/m² | - |
| 1778194047 | 25° C | 99% | 1013.2 hPa | 0 mm | - | 63 W/m² | - |
| 1778193744 | 25.56° C | 99% | 1013 hPa | 0 mm | - | 55 W/m² | - |
| 1778193440 | 25.56° C | 99% | 1013 hPa | 0 mm | - | 93 W/m² | - |
| 1778193137 | 25° C | 99% | 1013.1 hPa | 1.78 mm | - | 116 W/m² | - |
| 1778192834 | 24.44° C | 99% | 1013.2 hPa | 1.78 mm | - | 139 W/m² | - |
| 1778192530 | 24.44° C | 99% | 1013 hPa | 0 mm | - | 150 W/m² | - |
| 1778192227 | 24.44° C | 99% | 1013 hPa | 0 mm | - | 208 W/m² | - |
| 1778191923 | 24.44° C | 99% | 1013.1 hPa | 0 mm | - | 243 W/m² | - |
| 1778191621 | 24.44° C | 99% | 1013.3 hPa | 0 mm | - | 171 W/m² | - |
* Rain latest hour (hover to see other rain measurements)
** Current wind speed in m/s (hover to see current wind gust speed)